Location: Unspecified
(43.2327°S, 0.0000°E)
Time: 15:59:18
(UTC+00:00)

S-56A Canister/Altair - Visible Passes

Search period start: 04 April 2026 00:00
Search period end: 14 April 2026 00:00
Orbit: 632 x 2485 km, 38.9° (Epoch: 28 March)

Date Brightness Start Highest point End Pass type
(mag) Time Alt. Az. Time Alt. Az. Time Alt. Az.
4 Apr 10.4 03:45:56 18° N 03:45:56 18° N 03:50:04 10° NNE visible
5 Apr 10.7 03:13:32 13° NNE 03:13:32 13° NNE 03:14:55 10° NNE visible
6 Apr 9.2 19:45:07 10° NNW 19:46:37 16° N 19:46:37 16° N visible
7 Apr 8.8 19:10:42 10° NNW 19:13:48 17° NNE 19:13:48 17° NNE visible
8 Apr 9.0 18:36:19 10° N 18:39:07 15° NNE 18:40:57 12° NE visible
8 Apr 9.8 20:37:38 10° WNW 20:38:13 13° NW 20:38:13 13° NW visible
9 Apr 8.8 20:02:55 10° NW 20:05:19 25° NNW 20:05:19 25° NNW visible
10 Apr 8.0 19:28:09 10° NW 19:32:23 34° NNE 19:32:23 34° NNE visible
11 Apr 8.3 18:53:19 10° NW 18:57:50 31° NNE 18:59:25 25° NE visible
11 Apr 10.0 20:56:24 10° WNW 20:56:40 11° WNW 20:56:40 11° WNW visible
12 Apr 8.6 18:18:26 10° NW 18:23:06 29° NNE 18:26:25 13° ENE visible
12 Apr 9.1 20:21:34 10° WNW 20:23:41 24° WNW 20:23:41 24° WNW visible
13 Apr 7.9 19:46:39 10° WNW 19:50:39 44° NNW 19:50:39 44° NNW visible
